User: anonymous   Login
Location: Champseau
(45.8333°N, 1.7667°E)
Time: 04:20:19
(UTC+00:00)
Language:

BREEZE-M DEB (TANK) - Orbit

View from above orbital plane
View from above orbital plane
View from above satellite
View from above satellite

Ground track
Ground track

The orbit data is extracted from the following two-line orbital elements,

1 27821U 03024B   21168.31994648  .00003659  00000-0  45203-3 0  9991
2 27821  49.5921  27.0532 4885028  76.4773 331.7889  5.83581965365193
Epoch (UTC): 17 June 2021 07:40:43
Eccentricity: 0.4885028
inclination: 49.5921°
perigee height: 287 km
apogee height: 13019 km
right ascension of ascending node: 27.0532°
argument of perigee: 76.4773°
revolutions per day: 5.83581965
mean anomaly at epoch: 331.7889°
orbit number at epoch: 36519

The dashed part of the orbit path shows where the satellite is in the earth's shadow,  

DLR